logo tempoitalia

Diretta Meteo Nampa, Stati Uniti (USA)lunedì 31 agosto ore 00:35

Mappa
Sereno 15 °C Coperto 24 Ore: T.min 11 T.max 24
Ponente Nord Km/h 0 Punto di rugiada: 1 °C Umidità: 38% Visibilità: 10 Km
Il sole sorge alle: 07:09 Il sole tramonta alle: 20:23
31 Agosto 2026 00:35 tempo osservato: Coperto Coperto 15 38 1016 vento: Nord N 0
31 Agosto 2026 00:15 tempo osservato: Coperto Coperto 12 54 1016 vento: Nord N 0
30 Agosto 2026 23:55 tempo osservato: Coperto Coperto 14 41 1016 vento: Nord N 0
30 Agosto 2026 23:35 tempo osservato: Coperto Coperto 15 38 1016 vento: Nord N 0
30 Agosto 2026 23:15 tempo osservato: Molto Nuvoloso Molto Nuvoloso 13 47 1016 vento: Nord N 0
30 Agosto 2026 22:55 tempo osservato: Sereno Sereno 15 38 1016 vento: Nord N 0
30 Agosto 2026 22:35 tempo osservato: Sereno Sereno 15 38 1016 vento: Nord N 0
30 Agosto 2026 22:15 tempo osservato: Sereno Sereno 16 36 1016 vento: Nord N 0
30 Agosto 2026 21:55 tempo osservato: Sereno Sereno 15 41 1016 vento: Nord S 7.4
30 Agosto 2026 21:35 tempo osservato: Sereno Sereno 18 27 1016 vento: Nord N 0
30 Agosto 2026 21:15 tempo osservato: Sereno Sereno 21 18 1016 vento: Nord N 0
30 Agosto 2026 20:55 tempo osservato: Sereno Sereno 22 15 1016 vento: Nord N 0
30 Agosto 2026 20:35 tempo osservato: Sereno Sereno 21 16 1016 vento: Nord N 0
30 Agosto 2026 20:15 tempo osservato: Sereno Sereno 22 15 1016 vento: Nord N 0
30 Agosto 2026 19:55 tempo osservato: Sereno Sereno 23 14 1015 vento: Nord N 9.3
30 Agosto 2026 19:35 tempo osservato: Sereno Sereno 23 16 1016 vento: Nord N 13
30 Agosto 2026 19:15 tempo osservato: Sereno Sereno 24 15 1016 vento: Nord N 16.7
30 Agosto 2026 18:55 tempo osservato: Sereno Sereno 24 15 1016 vento: Nord N 16.7
30 Agosto 2026 18:35 tempo osservato: Sereno Sereno 24 16 1016 vento: Nord N/NE 16.7
30 Agosto 2026 18:15 tempo osservato: Sereno Sereno 24 15 1016 vento: Nord N 14.8
30 Agosto 2026 17:55 tempo osservato: Sereno Sereno 24 14 1016 vento: Nord N/NE 14.8
30 Agosto 2026 17:35 tempo osservato: Sereno Sereno 24 13 1016 vento: Nord N 14.8
30 Agosto 2026 17:15 tempo osservato: Sereno Sereno 24 14 1017 vento: Nord N 16.7
30 Agosto 2026 16:55 tempo osservato: Sereno Sereno 24 15 1017 vento: Nord N 14.8
30 Agosto 2026 16:15 tempo osservato: Sereno Sereno 23 17 1017 vento: Nord N 14.8
30 Agosto 2026 15:55 tempo osservato: Sereno Sereno 23 17 1017 vento: Nord N/NO 16.7
30 Agosto 2026 15:35 tempo osservato: Sereno Sereno 23 18 1018 vento: Nord N 16.7
30 Agosto 2026 15:15 tempo osservato: Sereno Sereno 23 18 1018 vento: Nord N 14.8
30 Agosto 2026 14:55 tempo osservato: Sereno Sereno 22 21 1018 vento: Nord N/NE 13
30 Agosto 2026 14:35 tempo osservato: Sereno Sereno 22 21 1019 vento: Nord N/NO 9.3
30 Agosto 2026 14:15 tempo osservato: Sereno Sereno 21 22 1019 vento: Nord N 11.1
30 Agosto 2026 13:55 tempo osservato: Sereno Sereno 21 24 1019 vento: Nord N 7.4
30 Agosto 2026 13:35 tempo osservato: Sereno Sereno 20 26 1019 vento: Nord NO 13
30 Agosto 2026 13:15 tempo osservato: Sereno Sereno 20 24 1019 vento: Nord N/NO 7.4
30 Agosto 2026 12:55 tempo osservato: Sereno Sereno 19 25 1020 vento: Nord N 11.1
30 Agosto 2026 12:35 tempo osservato: Sereno Sereno 19 27 1020 vento: Nord N 7.4
30 Agosto 2026 12:15 tempo osservato: Sereno Sereno 18 29 1020 vento: Nord N/NO 18.5
30 Agosto 2026 11:55 tempo osservato: Sereno Sereno 18 31 1020 vento: Nord N/NO 13
30 Agosto 2026 11:35 tempo osservato: Sereno Sereno 17 33 1020 vento: Nord N 11.1
30 Agosto 2026 11:15 tempo osservato: Sereno Sereno 16 36 1020 vento: Nord NO 14.8
30 Agosto 2026 10:55 tempo osservato: Sereno Sereno 16 36 1020 vento: Nord N/NO 11.1
30 Agosto 2026 10:35 tempo osservato: Sereno Sereno 16 36 1020 vento: Nord O/NO 13
30 Agosto 2026 10:15 tempo osservato: Sereno Sereno 15 38 1020 vento: Nord NO 16.7
30 Agosto 2026 09:55 tempo osservato: Sereno Sereno 15 38 1020 vento: Nord N/NO 13
30 Agosto 2026 09:35 tempo osservato: Sereno Sereno 14 41 1020 vento: Nord NO 13
30 Agosto 2026 09:15 tempo osservato: Sereno Sereno 14 41 1020 vento: Nord N/NO 7.4
30 Agosto 2026 08:55 tempo osservato: Sereno Sereno 13 47 1020 vento: Nord N 9.3
30 Agosto 2026 08:35 tempo osservato: Sereno Sereno 13 43 1020 vento: Nord N/NO 11.1
30 Agosto 2026 08:15 tempo osservato: Sereno Sereno 13 43 1020 vento: Nord N/NO 9.3
30 Agosto 2026 07:55 tempo osservato: Sereno Sereno 11 53 1020 vento: Nord N 0
30 Agosto 2026 07:35 tempo osservato: Sereno Sereno 11 53 1019 vento: Nord N 5.5
30 Agosto 2026 07:15 tempo osservato: Sereno Sereno 12 46 1019 vento: Nord O/NO 13
30 Agosto 2026 06:55 tempo osservato: Sereno Sereno 12 46 1019 vento: Nord N 5.5
30 Agosto 2026 06:35 tempo osservato: Sereno Sereno 12 46 1019 vento: Nord NO 7.4
30 Agosto 2026 06:15 tempo osservato: Poco Nuvoloso Poco Nuvoloso 12 46 1018 vento: Nord N 0
30 Agosto 2026 05:55 tempo osservato: Sereno Sereno 12 46 1018 vento: Nord N 0
30 Agosto 2026 05:35 tempo osservato: Sereno Sereno 13 40 1018 vento: Nord N 11.1
30 Agosto 2026 05:15 tempo osservato: Sereno Sereno 14 38 1018 vento: Nord NO 14.8
30 Agosto 2026 04:55 tempo osservato: Sereno Sereno 14 38 1018 vento: Nord NO 11.1
30 Agosto 2026 04:35 tempo osservato: Sereno Sereno 14 38 1018 vento: Nord NO 20.3
30 Agosto 2026 04:15 tempo osservato: Sereno Sereno 14 38 1018 vento: Nord NO 18.5
30 Agosto 2026 03:55 tempo osservato: Sereno Sereno 14 38 1017 vento: Nord NO 14.8
30 Agosto 2026 03:35 tempo osservato: Poco Nuvoloso Poco Nuvoloso 15 33 1017 vento: Nord NO 20.3
30 Agosto 2026 03:15 tempo osservato: Poco Nuvoloso Poco Nuvoloso 14 38 1017 vento: Nord O/NO 16.7
30 Agosto 2026 02:55 tempo osservato: Sereno Sereno 15 35 1017 vento: Nord O/NO 22.2
30 Agosto 2026 02:35 tempo osservato: Sereno Sereno 15 35 1016 vento: Nord O/NO 18.5
30 Agosto 2026 02:15 tempo osservato: Sereno Sereno 15 35 1016 vento: Nord O/NO 22.2
30 Agosto 2026 01:55 tempo osservato: Sereno Sereno 16 33 1016 vento: Nord O/NO 18.5
30 Agosto 2026 01:35 tempo osservato: Sereno Sereno 16 33 1016 vento: Nord O/NO 20.3
30 Agosto 2026 01:15 tempo osservato: Sereno Sereno 17 31 1016 vento: Nord O/NO 20.3
30 Agosto 2026 00:55 tempo osservato: Sereno Sereno 17 31 1015 vento: Nord NO 20.3
30 Agosto 2026 00:35 tempo osservato: Sereno Sereno 18 29 1015 vento: Nord O/NO 14.8